| time (UTC) | temp F | wind direction | speed MPH | gust MPH | rain 1hr in | rain 24hr in | rain mn in | humidity % | barometer mb |
| 20260906123051 | 84 | 108 | 2.0 | 5.0 | 0.00 | 0.01 | 0.00 | 66 | 1015.7 |
| 20260906122551 | 84 | 114 | 1.0 | 6.0 | 0.00 | 0.01 | 0.00 | 66 | 1015.7 |
| 20260906122051 | 85 | 87 | 2.0 | 6.0 | 0.00 | 0.01 | 0.00 | 65 | 1015.7 |
| 20260906121550 | 85 | 105 | 1.0 | 5.0 | 0.00 | 0.01 | 0.00 | 66 | 1015.7 |
| 20260906121048 | 84 | 116 | 2.0 | 5.0 | 0.00 | 0.01 | 0.00 | 66 | 1015.6 |
| 20260906120547 | 84 | 153 | 1.0 | 4.0 | 0.00 | 0.01 | 0.00 | 67 | 1015.6 |
| 20260906120050 | 83 | 122 | 1.0 | 3.0 | 0.00 | 0.01 | 0.00 | 68 | 1015.5 |
| 20260906115544 | 83 | 122 | 0.0 | 0.0 | 0.00 | 0.01 | 0.00 | 69 | 1015.6 |
| 20260906115042 | 82 | 125 | 0.0 | 0.0 | 0.00 | 0.01 | 0.00 | 70 | 1015.5 |
| 20260906114542 | 82 | 125 | 0.0 | 0.0 | 0.00 | 0.01 | 0.00 | 70 | 1015.4 |
| 20260906114040 | 82 | 120 | 0.0 | 0.0 | 0.00 | 0.01 | 0.00 | 71 | 1015.2 |
| 20260906113539 | 81 | 167 | 0.0 | 0.0 | 0.00 | 0.01 | 0.00 | 72 | 1015.2 |
| 20260906113039 | 81 | 174 | 0.0 | 0.0 | 0.00 | 0.01 | 0.00 | 72 | 1015.4 |
| 20260906112537 | 81 | 176 | 0.0 | 0.0 | 0.00 | 0.01 | 0.00 | 72 | 1015.2 |
| 20260906112037 | 81 | 165 | 0.0 | 0.0 | 0.00 | 0.01 | 0.00 | 72 | 1015.2 |
| 20260906111540 | 81 | 126 | 0.0 | 0.0 | 0.00 | 0.01 | 0.00 | 73 | 1015.1 |
| 20260906111037 | 81 | 148 | 0.0 | 0.0 | 0.00 | 0.01 | 0.00 | 75 | 1015.1 |
| 20260906110536 | 81 | 146 | 0.0 | 0.0 | 0.00 | 0.01 | 0.00 | 75 | 1015.0 |
| 20260906110041 | 80 | 210 | 0.0 | 0.0 | 0.00 | 0.01 | 0.00 | 76 | 1015.0 |
| 20260906105534 | 80 | 174 | 0.0 | 0.0 | 0.00 | 0.01 | 0.00 | 76 | 1014.9 |
| 20260906105032 | 79 | 136 | 0.0 | 0.0 | 0.00 | 0.01 | 0.00 | 76 | 1015.0 |
| 20260906104532 | 79 | 136 | 0.0 | 0.0 | 0.00 | 0.01 | 0.00 | 76 | 1015.0 |
| 20260906104031 | 79 | 136 | 0.0 | 0.0 | 0.00 | 0.01 | 0.00 | 1014.9 | |
| 20260906103529 | 0 | 0.0 | 0.0 | 0.00 | 0.01 | 0.00 | 1014.8 | ||
| 20260906103028 | 0 | 0.0 | 0.0 | 0.00 | 0.01 | 0.00 | 1014.9 | ||
| 20260906102527 | 0 | 0.0 | 0.0 | 0.00 | 0.01 | 0.00 | 1014.8 | ||
| 20260906102025 | 0 | 0.0 | 0.0 | 0.00 | 0.01 | 0.00 | 1014.8 | ||
| 20260906101524 | 0 | 0.0 | 0.0 | 0.00 | 0.01 | 0.00 | 1014.8 | ||
| 20260906101022 | 0 | 0.0 | 0.0 | 0.00 | 0.01 | 0.00 | 1014.7 | ||
| 20260906100524 | 0 | 0.0 | 0.0 | 0.00 | 0.01 | 0.00 | 1014.8 | ||
| 20260906100020 | 0 | 0.0 | 0.0 | 0.00 | 0.01 | 0.00 | 1014.7 | ||
| 20260906095518 | 0 | 0.0 | 0.0 | 0.00 | 0.01 | 0.00 | 1014.8 | ||
| 20260906095019 | 0 | 0.0 | 0.0 | 0.00 | 0.01 | 0.00 | 1014.6 | ||
| 20260906094526 | 0 | 0.0 | 0.0 | 0.00 | 0.01 | 0.00 | 1014.6 | ||
| 20260906094016 | 0 | 0.0 | 0.0 | 0.00 | 0.01 | 0.00 | 1014.5 | ||
| 20260906093512 | 0 | 0.0 | 0.0 | 0.00 | 0.01 | 0.00 | 1014.5 | ||
| 20260906093013 | 0 | 0.0 | 0.0 | 0.00 | 0.01 | 0.00 | 1014.3 | ||
| 20260906092509 | 0 | 0.0 | 0.0 | 0.00 | 0.01 | 0.00 | 1014.2 | ||
| 20260906092011 | 0 | 0.0 | 0.0 | 0.00 | 0.01 | 0.00 | 1014.3 | ||
| 20260906091506 | 0 | 0.0 | 0.0 | 0.00 | 0.01 | 0.00 | 1014.3 | ||
| 20260906091005 | 0 | 0.0 | 0.0 | 0.00 | 0.01 | 0.00 | 1014.3 | ||
| 20260906090506 | 0 | 0.0 | 0.0 | 0.00 | 0.01 | 0.00 | 1014.1 | ||
| 20260906085502 | 0 | 0.0 | 0.0 | 0.00 | 0.01 | 0.00 | 1014.1 | ||
| 20260906085059 | 0 | 0.0 | 0.0 | 0.00 | 0.01 | 0.00 | 1014.1 | ||
| 20260906084558 | 0 | 0.0 | 0.0 | 0.00 | 0.01 | 0.00 | 1014.1 | ||
| 20260906084058 | 0 | 0.0 | 0.0 | 0.00 | 0.01 | 0.00 | 1014.1 | ||
| 20260906083555 | 0 | 142 | 0.0 | 0.0 | 0.00 | 0.01 | 0.00 | 1014.1 | |
| 20260906083054 | 0 | 142 | 0.0 | 0.0 | 0.00 | 0.01 | 0.00 | 1014.0 | |
| 20260906082552 | 78 | 146 | 0.0 | 0.0 | 0.00 | 0.01 | 0.00 | 76 | 1013.9 |
| 20260906082052 | 78 | 173 | 0.0 | 0.0 | 0.00 | 0.01 | 0.00 | 76 | 1013.9 |
| 20260906081555 | 78 | 148 | 0.0 | 0.0 | 0.00 | 0.01 | 0.00 | 75 | 1013.9 |
| 20260906081052 | 78 | 150 | 0.0 | 0.0 | 0.00 | 0.01 | 0.00 | 75 | 1013.9 |
| 20260906080552 | 78 | 179 | 0.0 | 0.0 | 0.00 | 0.01 | 0.00 | 75 | 1013.9 |
| 20260906080054 | 78 | 141 | 0.0 | 0.0 | 0.00 | 0.01 | 0.00 | 75 | 1013.9 |
| 20260906075551 | 78 | 129 | 0.0 | 0.0 | 0.00 | 0.01 | 0.00 | 75 | 1013.9 |
| 20260906075055 | 78 | 164 | 0.0 | 3.0 | 0.00 | 0.01 | 0.00 | 75 | 1013.9 |
| 20260906074554 | 78 | 137 | 0.0 | 3.0 | 0.00 | 0.01 | 0.00 | 75 | 1013.8 |
| 20260906074049 | 78 | 151 | 0.0 | 3.0 | 0.00 | 0.01 | 0.00 | 75 | 1013.9 |
| 20260906073548 | 78 | 120 | 0.0 | 3.0 | 0.00 | 0.01 | 0.00 | 75 | 1014.0 |
| 20260906073047 | 78 | 169 | 0.0 | 4.0 | 0.00 | 0.01 | 0.00 | 76 | 1014.0 |
| 20260906072550 | 78 | 151 | 0.0 | 3.0 | 0.00 | 0.01 | 0.00 | 76 | 1014.1 |
| 20260906072047 | 78 | 117 | 0.0 | 3.0 | 0.00 | 0.01 | 0.00 | 76 | 1014.3 |
| 20260906071546 | 78 | 134 | 0.0 | 2.0 | 0.00 | 0.01 | 0.00 | 76 | 1014.3 |
| 20260906071050 | 78 | 127 | 0.0 | 2.0 | 0.00 | 0.01 | 0.00 | 76 | 1014.3 |
| 20260906070547 | 78 | 159 | 0.0 | 2.0 | 0.00 | 0.01 | 0.00 | 76 | 1014.2 |
| 20260906070045 | 78 | 150 | 0.0 | 3.0 | 0.00 | 0.01 | 0.00 | 76 | 1014.2 |
| 20260906065546 | 78 | 134 | 0.0 | 3.0 | 0.00 | 0.01 | 0.00 | 76 | 1014.3 |
| 20260906065046 | 78 | 146 | 0.0 | 3.0 | 0.00 | 0.01 | 0.00 | 76 | 1014.3 |
| 20260906064544 | 78 | 156 | 0.0 | 3.0 | 0.00 | 0.01 | 0.00 | 76 | 1014.1 |
| 20260906064044 | 78 | 169 | 0.0 | 2.0 | 0.00 | 0.01 | 0.00 | 76 | 1014.2 |
| 20260906063542 | 78 | 151 | 0.0 | 3.0 | 0.00 | 0.01 | 0.00 | 76 | 1014.3 |
| 20260906063042 | 78 | 137 | 0.0 | 3.0 | 0.00 | 0.01 | 0.00 | 76 | 1014.3 |
| 20260906062541 | 78 | 170 | 0.0 | 2.0 | 0.00 | 0.01 | 0.00 | 76 | 1014.4 |
| 20260906062040 | 78 | 168 | 0.0 | 2.0 | 0.00 | 0.01 | 0.00 | 76 | 1014.4 |
| 20260906061541 | 78 | 155 | 0.0 | 3.0 | 0.00 | 0.01 | 0.00 | 76 | 1014.5 |
| 20260906061039 | 78 | 146 | 1.0 | 4.0 | 0.00 | 0.01 | 0.00 | 76 | 1014.6 |
| 20260906060538 | 79 | 117 | 1.0 | 3.0 | 0.00 | 0.01 | 0.00 | 75 | 1014.6 |
| 20260906060137 | 79 | 161 | 1.0 | 3.0 | 0.00 | 0.01 | 0.00 | 75 | 1014.7 |
| 20260906055537 | 79 | 195 | 0.0 | 3.0 | 0.00 | 0.01 | 0.00 | 75 | 1014.8 |
| 20260906055037 | 79 | 163 | 0.0 | 4.0 | 0.00 | 0.01 | 0.00 | 75 | 1014.9 |
| 20260906054534 | 79 | 117 | 1.0 | 4.0 | 0.00 | 0.01 | 0.00 | 75 | 1014.9 |
| 20260906054034 | 79 | 126 | 0.0 | 3.0 | 0.00 | 0.01 | 0.00 | 75 | 1015.1 |
| 20260906053534 | 78 | 176 | 0.0 | 2.0 | 0.00 | 0.01 | 0.00 | 75 | 1015.0 |
| 20260906053033 | 78 | 190 | 0.0 | 3.0 | 0.00 | 0.01 | 0.00 | 75 | 1014.9 |
| 20260906052533 | 78 | 201 | 0.0 | 3.0 | 0.00 | 0.01 | 0.00 | 75 | 1014.9 |
| 20260906052033 | 78 | 118 | 0.0 | 0.0 | 0.00 | 0.01 | 0.00 | 75 | 1015.1 |
| 20260906051531 | 78 | 206 | 0.0 | 0.0 | 0.00 | 0.01 | 0.00 | 75 | 1015.1 |
| 20260906051031 | 78 | 197 | 0.0 | 3.0 | 0.00 | 0.01 | 0.00 | 74 | 1015.1 |
| 20260906050530 | 78 | 150 | 0.0 | 2.0 | 0.00 | 0.01 | 0.00 | 74 | 1015.3 |
| 20260906050029 | 78 | 184 | 0.0 | 2.0 | 0.00 | 0.01 | 0.00 | 74 | 1015.4 |
| 20260906045529 | 78 | 124 | 0.0 | 0.0 | 0.00 | 0.01 | 0.00 | 74 | 1015.5 |
| 20260906045028 | 78 | 169 | 0.0 | 3.0 | 0.00 | 0.01 | 0.00 | 74 | 1015.4 |
| 20260906044533 | 78 | 154 | 0.0 | 3.0 | 0.00 | 0.01 | 0.00 | 74 | 1015.6 |
| 20260906044028 | 78 | 134 | 0.0 | 1.0 | 0.00 | 0.01 | 0.00 | 74 | 1015.6 |
| 20260906043529 | 78 | 160 | 0.0 | 2.0 | 0.00 | 0.01 | 0.00 | 73 | 1015.6 |
| 20260906043126 | 78 | 162 | 0.0 | 3.0 | 0.00 | 0.01 | 0.00 | 73 | 1015.5 |
| 20260906042526 | 78 | 172 | 0.0 | 3.0 | 0.00 | 0.01 | 0.00 | 73 | 1015.5 |
| 20260906042025 | 78 | 148 | 0.0 | 3.0 | 0.00 | 0.01 | 0.00 | 73 | 1015.5 |
| 20260906041525 | 78 | 213 | 0.0 | 3.0 | 0.00 | 0.01 | 0.00 | 72 | 1015.6 |
| 20260906041029 | 79 | 147 | 1.0 | 3.0 | 0.00 | 0.01 | 0.00 | 72 | 1015.6 |
| 20260906040526 | 79 | 163 | 0.0 | 0.0 | 0.00 | 0.01 | 0.00 | 72 | 1015.6 |
| 20260906040027 | 79 | 138 | 0.0 | 0.0 | 0.00 | 0.01 | 0.00 | 72 | 1015.7 |
| 20260906035522 | 79 | 110 | 0.0 | 0.0 | 0.00 | 0.01 | 0.01 | 72 | 1015.9 |
| 20260906035024 | 79 | 116 | 0.0 | 0.0 | 0.00 | 0.01 | 0.01 | 71 | 1015.9 |
| 20260906034521 | 79 | 123 | 0.0 | 0.0 | 0.00 | 0.01 | 0.01 | 71 | 1016.0 |
| 20260906034023 | 79 | 175 | 0.0 | 0.0 | 0.00 | 0.01 | 0.01 | 71 | 1016.0 |
| 20260906033521 | 79 | 157 | 0.0 | 0.0 | 0.00 | 0.01 | 0.01 | 71 | 1016.0 |
| 20260906033021 | 79 | 153 | 0.0 | 0.0 | 0.00 | 0.01 | 0.01 | 71 | 1016.1 |
| 20260906032524 | 79 | 158 | 0.0 | 0.0 | 0.00 | 0.01 | 0.01 | 71 | 1016.0 |
| 20260906032020 | 79 | 146 | 0.0 | 0.0 | 0.00 | 0.01 | 0.01 | 71 | 1016.0 |
| 20260906031534 | 79 | 147 | 0.0 | 0.0 | 0.00 | 0.01 | 0.01 | 71 | 1016.0 |
| 20260906031020 | 79 | 141 | 0.0 | 0.0 | 0.00 | 0.01 | 0.01 | 71 | 1016.1 |
| 20260906030520 | 79 | 122 | 0.0 | 0.0 | 0.00 | 0.01 | 0.01 | 70 | 1016.2 |
| 20260906030021 | 79 | 166 | 0.0 | 0.0 | 0.00 | 0.01 | 0.01 | 70 | 1016.2 |
| 20260906025520 | 79 | 125 | 0.0 | 0.0 | 0.00 | 0.01 | 0.01 | 70 | 1016.3 |
| 20260906025020 | 79 | 162 | 0.0 | 0.0 | 0.00 | 0.01 | 0.01 | 70 | 1016.2 |
| 20260906024519 | 79 | 144 | 0.0 | 1.0 | 0.00 | 0.01 | 0.01 | 70 | 1016.2 |
| 20260906024022 | 79 | 147 | 0.0 | 1.0 | 0.00 | 0.01 | 0.01 | 70 | 1016.2 |
| 20260906023519 | 79 | 181 | 0.0 | 0.0 | 0.00 | 0.01 | 0.01 | 70 | 1016.2 |
| 20260906023020 | 79 | 115 | 0.0 | 0.0 | 0.00 | 0.01 | 0.01 | 70 | 1016.1 |
| 20260906022518 | 79 | 139 | 0.0 | 0.0 | 0.00 | 0.01 | 0.01 | 70 | 1016.1 |
| 20260906022019 | 79 | 174 | 0.0 | 0.0 | 0.00 | 0.01 | 0.01 | 70 | 1016.0 |
| 20260906021519 | 80 | 150 | 0.0 | 0.0 | 0.00 | 0.01 | 0.01 | 69 | 1016.0 |
| 20260906021018 | 80 | 134 | 0.0 | 0.0 | 0.00 | 0.01 | 0.01 | 69 | 1016.1 |
| 20260906020520 | 80 | 121 | 0.0 | 0.0 | 0.00 | 0.01 | 0.01 | 69 | 1016.3 |
| 20260906020021 | 80 | 177 | 0.0 | 0.0 | 0.00 | 0.01 | 0.01 | 69 | 1016.3 |
| 20260906015522 | 80 | 155 | 0.0 | 0.0 | 0.00 | 0.01 | 0.01 | 69 | 1016.2 |
| 20260906015018 | 80 | 171 | 0.0 | 0.0 | 0.00 | 0.01 | 0.01 | 69 | 1016.2 |
| 20260906014517 | 80 | 160 | 0.0 | 0.0 | 0.00 | 0.01 | 0.01 | 69 | 1016.1 |
| 20260906014019 | 80 | 177 | 0.0 | 1.0 | 0.00 | 0.01 | 0.01 | 69 | 1016.1 |
| 20260906013516 | 80 | 167 | 0.0 | 1.0 | 0.00 | 0.01 | 0.01 | 69 | 1016.0 |
| 20260906013017 | 80 | 160 | 0.0 | 1.0 | 0.00 | 0.01 | 0.01 | 69 | 1015.9 |
| 20260906012516 | 80 | 132 | 0.0 | 1.0 | 0.00 | 0.01 | 0.01 | 69 | 1015.9 |
| 20260906012016 | 79 | 124 | 0.0 | 2.0 | 0.00 | 0.01 | 0.01 | 69 | 1015.8 |
| 20260906011517 | 79 | 169 | 0.0 | 2.0 | 0.00 | 0.01 | 0.01 | 69 | 1015.7 |
| 20260906011116 | 79 | 192 | 0.0 | 2.0 | 0.00 | 0.01 | 0.01 | 69 | 1015.7 |
| 20260906010515 | 79 | 146 | 0.0 | 1.0 | 0.00 | 0.01 | 0.01 | 69 | 1015.6 |
| 20260906010015 | 79 | 155 | 0.0 | 2.0 | 0.00 | 0.01 | 0.01 | 69 | 1015.6 |
| 20260906005515 | 79 | 181 | 0.0 | 2.0 | 0.00 | 0.01 | 0.01 | 69 | 1015.6 |
| 20260906005015 | 79 | 186 | 0.0 | 2.0 | 0.00 | 0.01 | 0.01 | 69 | 1015.5 |
| 20260906004515 | 79 | 209 | 0.0 | 3.0 | 0.00 | 0.01 | 0.01 | 69 | 1015.4 |
| 20260906004014 | 80 | 169 | 0.0 | 3.0 | 0.00 | 0.01 | 0.01 | 69 | 1015.3 |
| 20260906003514 | 80 | 155 | 0.0 | 0.0 | 0.00 | 0.01 | 0.01 | 69 | 1015.3 |
| 20260906003022 | 80 | 134 | 0.0 | 3.0 | 0.00 | 0.01 | 0.01 | 69 | 1015.2 |
| 20260906002513 | 80 | 204 | 0.0 | 3.0 | 0.00 | 0.01 | 0.01 | 68 | 1015.2 |
| 20260906002014 | 80 | 166 | 0.0 | 3.0 | 0.00 | 0.01 | 0.01 | 68 | 1015.3 |
| 20260906001513 | 80 | 166 | 1.0 | 3.0 | 0.00 | 0.01 | 0.01 | 68 | 1015.3 |
| 20260906001013 | 80 | 183 | 0.0 | 3.0 | 0.00 | 0.01 | 0.01 | 68 | 1015.2 |
| 20260906000513 | 80 | 221 | 0.0 | 3.0 | 0.00 | 0.01 | 0.01 | 68 | 1015.2 |
| 20260906000014 | 80 | 213 | 0.0 | 2.0 | 0.00 | 0.01 | 0.01 | 68 | 1015.2 |
| 20260905235513 | 80 | 161 | 0.0 | 1.0 | 0.00 | 0.01 | 0.01 | 68 | 1015.3 |
| 20260905235018 | 80 | 161 | 0.0 | 1.0 | 0.00 | 0.01 | 0.01 | 68 | 1015.2 |
| 20260905234513 | 80 | 146 | 0.0 | 1.0 | 0.00 | 0.01 | 0.01 | 68 | 1015.1 |
| 20260905234017 | 80 | 136 | 0.0 | 3.0 | 0.00 | 0.01 | 0.01 | 68 | 1015.2 |
| 20260905233512 | 80 | 93 | 0.0 | 3.0 | 0.00 | 0.01 | 0.01 | 68 | 1015.1 |
| 20260905233014 | 80 | 191 | 0.0 | 1.0 | 0.00 | 0.01 | 0.01 | 68 | 1015.0 |
| 20260905232513 | 81 | 166 | 0.0 | 1.0 | 0.00 | 0.01 | 0.01 | 68 | 1015.0 |
| 20260905232014 | 81 | 131 | 0.0 | 3.0 | 0.00 | 0.01 | 0.01 | 68 | 1014.9 |
| 20260905231513 | 81 | 143 | 1.0 | 3.0 | 0.00 | 0.01 | 0.01 | 68 | 1014.8 |
| 20260905231011 | 81 | 117 | 1.0 | 3.0 | 0.00 | 0.01 | 0.01 | 67 | 1014.8 |
| 20260905230511 | 81 | 146 | 1.0 | 3.0 | 0.00 | 0.01 | 0.01 | 67 | 1014.8 |
| 20260905230012 | 81 | 120 | 1.0 | 3.0 | 0.00 | 0.01 | 0.01 | 68 | 1015.0 |
| 20260905225511 | 81 | 143 | 0.0 | 4.0 | 0.00 | 0.01 | 0.01 | 68 | 1015.0 |
| 20260905225010 | 81 | 148 | 1.0 | 5.0 | 0.00 | 0.01 | 0.01 | 67 | 1015.0 |
| 20260905224510 | 82 | 106 | 1.0 | 7.0 | 0.00 | 0.01 | 0.01 | 67 | 1015.0 |
| 20260905224009 | 82 | 100 | 3.0 | 7.0 | 0.00 | 0.01 | 0.01 | 67 | 1014.9 |
| 20260905223509 | 82 | 130 | 3.0 | 7.0 | 0.00 | 0.01 | 0.01 | 67 | 1014.8 |
| 20260905223028 | 83 | 131 | 1.0 | 6.0 | 0.00 | 0.01 | 0.01 | 66 | 1014.9 |
| 20260905222509 | 83 | 124 | 2.0 | 6.0 | 0.00 | 0.01 | 0.01 | 66 | 1014.8 |
| 20260905222009 | 84 | 177 | 3.0 | 6.0 | 0.00 | 0.01 | 0.01 | 66 | 1014.7 |
| 20260905221527 | 84 | 174 | 1.0 | 6.0 | 0.00 | 0.01 | 0.01 | 65 | 1014.7 |
| 20260905221008 | 85 | 152 | 2.0 | 7.0 | 0.00 | 0.01 | 0.01 | 65 | 1014.6 |
| 20260905220507 | 85 | 184 | 3.0 | 8.0 | 0.00 | 0.01 | 0.01 | 64 | 1014.6 |
| 20260905220007 | 85 | 169 | 4.0 | 8.0 | 0.00 | 0.01 | 0.01 | 64 | 1014.6 |
| 20260905215511 | 85 | 120 | 3.0 | 7.0 | 0.00 | 0.01 | 0.01 | 63 | 1014.5 |
| 20260905215007 | 86 | 133 | 2.0 | 6.0 | 0.00 | 0.01 | 0.01 | 63 | 1014.6 |
| 20260905214506 | 85 | 107 | 3.0 | 7.0 | 0.00 | 0.01 | 0.01 | 63 | 1014.6 |
| 20260905214007 | 85 | 122 | 2.0 | 8.0 | 0.00 | 0.01 | 0.01 | 63 | 1014.6 |
| 20260905213506 | 85 | 131 | 3.0 | 8.0 | 0.00 | 0.01 | 0.01 | 63 | 1014.5 |
| 20260905213008 | 86 | 73 | 2.0 | 7.0 | 0.00 | 0.01 | 0.01 | 64 | 1014.5 |
| 20260905212505 | 86 | 141 | 2.0 | 7.0 | 0.00 | 0.01 | 0.01 | 64 | 1014.6 |
| 20260905212005 | 86 | 134 | 3.0 | 7.0 | 0.00 | 0.01 | 0.01 | 64 | 1014.6 |
| 20260905211512 | 86 | 96 | 2.0 | 8.0 | 0.00 | 0.01 | 0.01 | 64 | 1014.4 |
| 20260905211006 | 87 | 133 | 3.0 | 8.0 | 0.00 | 0.01 | 0.01 | 63 | 1014.5 |
| 20260905210505 | 87 | 155 | 3.0 | 8.0 | 0.00 | 0.01 | 0.01 | 61 | 1014.4 |
| 20260905210006 | 87 | 117 | 3.0 | 8.0 | 0.00 | 0.01 | 0.01 | 61 | 1014.2 |
| 20260905205504 | 86 | 197 | 4.0 | 10.0 | 0.00 | 0.01 | 0.01 | 61 | 1014.3 |
| 20260905205004 | 86 | 109 | 4.0 | 10.0 | 0.00 | 0.01 | 0.01 | 62 | 1014.1 |
| 20260905204605 | 86 | 66 | 3.0 | 8.0 | 0.00 | 0.01 | 0.01 | 63 | 1014.0 |
| 20260905204002 | 86 | 154 | 2.0 | 11.0 | 0.00 | 0.01 | 0.01 | 64 | 1014.1 |
| 20260905203503 | 87 | 127 | 5.0 | 9.0 | 0.00 | 0.01 | 0.01 | 63 | 1014.2 |
| 20260905203002 | 88 | 115 | 5.0 | 9.0 | 0.00 | 0.01 | 0.01 | 62 | 1014.1 |
| 20260905202500 | 88 | 165 | 3.0 | 8.0 | 0.00 | 0.01 | 0.01 | 62 | 1014.0 |
| 20260905202002 | 88 | 115 | 3.0 | 9.0 | 0.00 | 0.01 | 0.01 | 62 | 1014.0 |
| 20260905201503 | 88 | 132 | 4.0 | 10.0 | 0.00 | 0.01 | 0.01 | 62 | 1014.0 |
| 20260905201100 | 88 | 181 | 4.0 | 11.0 | 0.00 | 0.01 | 0.01 | 62 | 1013.9 |
| 20260905200601 | 88 | 203 | 2.0 | 10.0 | 0.00 | 0.01 | 0.01 | 63 | 1013.7 |
| 20260905200135 | 88 | 165 | 5.0 | 10.0 | 0.00 | 0.01 | 0.01 | 62 | 1013.7 |
| 20260905195601 | 88 | 192 | 5.0 | 10.0 | 0.00 | 0.01 | 0.01 | 62 | 1013.6 |
| 20260905195059 | 88 | 122 | 4.0 | 9.0 | 0.00 | 0.01 | 0.01 | 62 | 1013.6 |
| 20260905194610 | 88 | 118 | 4.0 | 10.0 | 0.00 | 0.01 | 0.01 | 62 | 1013.5 |
| 20260905194059 | 89 | 101 | 4.0 | 10.0 | 0.00 | 0.01 | 0.01 | 61 | 1013.6 |
| 20260905193600 | 89 | 224 | 4.0 | 8.0 | 0.00 | 0.01 | 0.01 | 60 | 1013.6 |
| 20260905193059 | 89 | 129 | 4.0 | 8.0 | 0.00 | 0.01 | 0.01 | 59 | 1013.7 |
| 20260905192558 | 89 | 108 | 3.0 | 11.0 | 0.00 | 0.01 | 0.01 | 60 | 1013.7 |
| 20260905192058 | 90 | 137 | 6.0 | 11.0 | 0.00 | 0.01 | 0.01 | 59 | 1013.8 |
| 20260905191557 | 90 | 122 | 3.0 | 11.0 | 0.00 | 0.01 | 0.01 | 60 | 1013.8 |
| 20260905191100 | 89 | 175 | 4.0 | 10.0 | 0.00 | 0.01 | 0.01 | 60 | 1013.8 |
| 20260905190556 | 89 | 152 | 4.0 | 10.0 | 0.00 | 0.01 | 0.01 | 60 | 1013.8 |
| 20260905190056 | 89 | 181 | 3.0 | 10.0 | 0.00 | 0.01 | 0.01 | 62 | 1013.9 |
| 20260905185556 | 88 | 98 | 6.0 | 10.0 | 0.00 | 0.01 | 0.01 | 62 | 1013.9 |
| 20260905185100 | 88 | 181 | 3.0 | 9.0 | 0.00 | 0.01 | 0.01 | 62 | 1013.9 |
| 20260905184603 | 87 | 114 | 2.0 | 12.0 | 0.00 | 0.01 | 0.01 | 63 | 1013.9 |
| 20260905184054 | 88 | 139 | 5.0 | 12.0 | 0.00 | 0.01 | 0.01 | 61 | 1014.0 |
| 20260905183555 | 89 | 110 | 4.0 | 9.0 | 0.00 | 0.01 | 0.01 | 60 | 1014.0 |
| 20260905183053 | 90 | 178 | 5.0 | 9.0 | 0.00 | 0.01 | 0.01 | 58 | 1014.1 |
| 20260905182552 | 90 | 134 | 3.0 | 10.0 | 0.00 | 0.01 | 0.01 | 59 | 1014.2 |
| 20260905182054 | 90 | 132 | 4.0 | 11.0 | 0.00 | 0.01 | 0.01 | 59 | 1014.2 |
| 20260905181551 | 89 | 172 | 3.0 | 10.0 | 0.00 | 0.01 | 0.01 | 60 | 1014.3 |
| 20260905181051 | 89 | 203 | 3.0 | 13.0 | 0.00 | 0.01 | 0.01 | 60 | 1014.2 |
| 20260905180550 | 89 | 161 | 5.0 | 13.0 | 0.00 | 0.01 | 0.01 | 62 | 1014.3 |
| 20260905180047 | 88 | 151 | 3.0 | 9.0 | 0.00 | 0.01 | 0.01 | 62 | 1014.3 |
| 20260905175547 | 88 | 148 | 3.0 | 10.0 | 0.00 | 0.01 | 0.01 | 63 | 1014.4 |
| 20260905175048 | 88 | 160 | 4.0 | 10.0 | 0.00 | 0.01 | 0.01 | 63 | 1014.5 |
| 20260905174546 | 88 | 198 | 4.0 | 10.0 | 0.00 | 0.01 | 0.01 | 62 | 1014.5 |
| 20260905174047 | 88 | 165 | 5.0 | 10.0 | 0.00 | 0.01 | 0.01 | 62 | 1014.5 |
| 20260905173544 | 88 | 201 | 5.0 | 10.0 | 0.00 | 0.01 | 0.01 | 62 | 1014.6 |
| 20260905173045 | 87 | 172 | 3.0 | 8.0 | 0.00 | 0.01 | 0.01 | 63 | 1014.7 |
| 20260905172544 | 86 | 109 | 3.0 | 8.0 | 0.00 | 0.01 | 0.01 | 63 | 1014.8 |
| 20260905172044 | 87 | 156 | 4.0 | 8.0 | 0.00 | 0.01 | 0.01 | 64 | 1015.0 |
| 20260905171557 | 86 | 116 | 3.0 | 8.0 | 0.00 | 0.01 | 0.01 | 64 | 1015.0 |
| 20260905171043 | 85 | 204 | 3.0 | 9.0 | 0.00 | 0.01 | 0.01 | 65 | 1015.1 |
| 20260905170543 | 85 | 131 | 2.0 | 9.0 | 0.00 | 0.01 | 0.01 | 65 | 1015.2 |
| 20260905170047 | 86 | 167 | 5.0 | 11.0 | 0.00 | 0.01 | 0.01 | 64 | 1015.2 |
| 20260905165543 | 86 | 137 | 4.0 | 11.0 | 0.00 | 0.01 | 0.01 | 64 | 1015.3 |
| 20260905165043 | 87 | 146 | 5.0 | 11.0 | 0.00 | 0.01 | 0.01 | 64 | 1015.2 |
| 20260905164547 | 87 | 122 | 4.0 | 10.0 | 0.00 | 0.01 | 0.01 | 64 | 1015.2 |
| 20260905164043 | 87 | 127 | 3.0 | 9.0 | 0.00 | 0.01 | 0.01 | 64 | 1015.2 |
| 20260905163542 | 87 | 164 | 4.0 | 9.0 | 0.00 | 0.01 | 0.01 | 64 | 1015.2 |
| 20260905163042 | 87 | 113 | 2.0 | 8.0 | 0.00 | 0.01 | 0.01 | 63 | 1015.2 |
| 20260905162542 | 87 | 158 | 2.0 | 8.0 | 0.00 | 0.01 | 0.01 | 63 | 1015.3 |
| 20260905162040 | 88 | 143 | 2.0 | 9.0 | 0.00 | 0.01 | 0.01 | 63 | 1015.4 |
| 20260905161543 | 87 | 148 | 4.0 | 9.0 | 0.00 | 0.01 | 0.01 | 63 | 1015.4 |
| 20260905161039 | 87 | 122 | 2.0 | 8.0 | 0.00 | 0.01 | 0.01 | 65 | 1015.4 |
| 20260905160538 | 86 | 161 | 2.0 | 8.0 | 0.00 | 0.01 | 0.01 | 65 | 1015.6 |
| 20260905160046 | 86 | 148 | 3.0 | 11.0 | 0.00 | 0.01 | 0.01 | 65 | 1015.6 |
| 20260905155538 | 86 | 166 | 5.0 | 11.0 | 0.00 | 0.01 | 0.01 | 65 | 1015.7 |
| 20260905155037 | 86 | 188 | 5.0 | 9.0 | 0.00 | 0.01 | 0.01 | 64 | 1015.8 |
| 20260905154551 | 85 | 188 | 4.0 | 7.0 | 0.00 | 0.01 | 0.01 | 65 | 1015.9 |
| 20260905154037 | 85 | 217 | 2.0 | 8.0 | 0.00 | 0.01 | 0.01 | 65 | 1016.0 |
| 20260905153539 | 86 | 210 | 5.0 | 8.0 | 0.00 | 0.01 | 0.01 | 64 | 1016.0 |
| 20260905153036 | 86 | 120 | 3.0 | 8.0 | 0.00 | 0.01 | 0.01 | 64 | 1015.9 |
| 20260905152537 | 86 | 202 | 2.0 | 7.0 | 0.00 | 0.01 | 0.01 | 65 | 1016.1 |
| 20260905152037 | 85 | 218 | 4.0 | 7.0 | 0.00 | 0.01 | 0.01 | 64 | 1016.1 |
| 20260905151538 | 85 | 179 | 3.0 | 7.0 | 0.00 | 0.01 | 0.01 | 65 | 1016.1 |
| 20260905151035 | 85 | 214 | 4.0 | 7.0 | 0.00 | 0.01 | 0.01 | 65 | 1016.2 |
| 20260905150535 | 84 | 192 | 2.0 | 9.0 | 0.00 | 0.01 | 0.01 | 66 | 1016.3 |
| 20260905150036 | 84 | 206 | 4.0 | 10.0 | 0.00 | 0.01 | 0.01 | 66 | 1016.2 |
| 20260905145536 | 84 | 136 | 5.0 | 10.0 | 0.00 | 0.01 | 0.01 | 65 | 1016.2 |
| 20260905145037 | 85 | 155 | 6.0 | 10.0 | 0.00 | 0.01 | 0.01 | 65 | 1016.2 |
| 20260905144548 | 85 | 137 | 5.0 | 10.0 | 0.00 | 0.01 | 0.01 | 64 | 1016.3 |
| 20260905144034 | 85 | 160 | 3.0 | 10.0 | 0.00 | 0.01 | 0.01 | 64 | 1016.2 |
| 20260905143535 | 85 | 153 | 2.0 | 8.0 | 0.00 | 0.01 | 0.01 | 65 | 1016.3 |
| 20260905143035 | 85 | 118 | 4.0 | 9.0 | 0.00 | 0.01 | 0.01 | 64 | 1016.3 |
| 20260905142538 | 85 | 118 | 3.0 | 9.0 | 0.01 | 0.01 | 0.01 | 65 | 1016.4 |
| 20260905142034 | 85 | 139 | 3.0 | 7.0 | 0.01 | 0.01 | 0.01 | 65 | 1016.4 |
| 20260905141534 | 84 | 163 | 1.0 | 6.0 | 0.01 | 0.01 | 0.01 | 66 | 1016.6 |
| 20260905141034 | 84 | 113 | 3.0 | 7.0 | 0.01 | 0.01 | 0.01 | 67 | 1016.6 |
| 20260905140534 | 84 | 98 | 3.0 | 7.0 | 0.01 | 0.01 | 0.01 | 67 | 1016.5 |
| 20260905140038 | 84 | 125 | 4.0 | 7.0 | 0.01 | 0.01 | 0.01 | 67 | 1016.5 |
| 20260905135534 | 83 | 122 | 1.0 | 9.0 | 0.01 | 0.01 | 0.01 | 67 | 1016.5 |
| 20260905135033 | 83 | 119 | 3.0 | 9.0 | 0.01 | 0.01 | 0.01 | 67 | 1016.6 |
| 20260905134533 | 83 | 108 | 2.0 | 9.0 | 0.01 | 0.01 | 0.01 | 67 | 1016.6 |
| 20260905134032 | 83 | 92 | 2.0 | 9.0 | 0.01 | 0.01 | 0.01 | 67 | 1016.5 |
| 20260905133532 | 83 | 94 | 3.0 | 8.0 | 0.01 | 0.01 | 0.01 | 66 | 1016.5 |
| 20260905133032 | 84 | 82 | 4.0 | 8.0 | 0.01 | 0.01 | 0.01 | 66 | 1016.4 |
| 20260905132532 | 84 | 141 | 1.0 | 6.0 | 0.00 | 0.00 | 0.00 | 65 | 1016.3 |
| 20260905132032 | 85 | 134 | 2.0 | 8.0 | 0.00 | 0.00 | 0.00 | 65 | 1016.3 |
| 20260905131531 | 86 | 155 | 3.0 | 8.0 | 0.00 | 0.00 | 0.00 | 64 | 1016.2 |
| 20260905131031 | 86 | 160 | 3.0 | 6.0 | 0.00 | 0.00 | 0.00 | 64 | 1016.2 |
| 20260905130531 | 86 | 129 | 2.0 | 5.0 | 0.00 | 0.00 | 0.00 | 64 | 1016.2 |
| 20260905130029 | 84 | 66 | 0.0 | 4.0 | 0.00 | 0.00 | 0.00 | 66 | 1016.2 |
| 20260905125528 | 83 | 222 | 0.0 | 0.0 | 0.00 | 0.00 | 0.00 | 67 | 1016.3 |
| 20260905125027 | 82 | 77 | 0.0 | 0.0 | 0.00 | 0.00 | 0.00 | 69 | 1016.4 |
| 20260905124532 | 81 | 293 | 0.0 | 0.0 | 0.00 | 0.00 | 0.00 | 70 | 1016.4 |
| 20260905124028 | 80 | 293 | 0.0 | 0.0 | 0.00 | 0.00 | 0.00 | 70 | 1016.4 |
| 20260905123522 | 80 | 312 | 0.0 | 0.0 | 0.00 | 0.00 | 0.00 | 70 | 1016.4 |